Location: Unspecified
(40.7945°N, 111.1337°W)
Time: 21:49:12
(UTC-06:00)

Hubble Space Telescope - Pass Details

Date: 29 March 2019
Orbit: 536 x 540 km, 28.5° (Epoch: 13 October)

Event Time Altitude Azimuth Distance (km) Brightness Sun altitude
Rises 21:18:46 0° 243° (WSW) 2,669 5.0 -17.8°
Reaches altitude 10° 21:22:00 10° 217° (SW) 1,778 3.6 -18.4°
Maximum altitude 21:24:04 14° 187° (S) 1,564 3.0 -18.8°
Enters shadow 21:24:18 14° 183° (S) 1,567 2.9 -18.8°
